Regional Weather Roundup
Issued by NWS

Home | Current Version | Previous Version | Graphics & Text | Print | Product List | Glossary On
Versions: 1 2 3 4 5 6 7 8 9 10 11 12 13 14 15 16 17 18 19 20 21 22 23 24 25 26 27 28 29 30 31 32 33 34 35 36 37 38 39 40 41 42 43 44 45 46 47 48 49 50
000
ASUS43 KFSD 261610
RWRSD

WEATHER ROUNDUP FOR SOUTH DAKOTA
NATIONAL WEATHER SERVICE SIOUX FALLS SD
1100 AM CDT THU APR 26 2018

NOTE: "FAIR" INDICATES FEW OR NO CLOUDS BELOW 12,000 FEET WITH NO
SIGNIFICANT WEATHER AND/OR OBSTRUCTIONS TO VISIBILITY.


SDZ001>005-009-010-012>017-261700-
NORTHWEST AND NORTH CENTRAL SOUTH DAKOTA

CITY           SKY/WX    TMP DP  RH WIND       PRES   REMARKS
BUFFALO          N/A     55  29  36 NW8       30.16
FAITH            N/A     54  29  38 NW10      30.20R
MOBRIDGE       SUNNY     55  31  39 N9        30.14R
$$

SDZ012>016-024>037-041>051-057-063-072>074-261700-
SOUTHWEST AND SOUTH CENTRAL SOUTH DAKOTA

CITY           SKY/WX    TMP DP  RH WIND       PRES   REMARKS
RAPID CTY ARPT SUNNY     54  31  41 N15G21    30.24R
PIERRE         SUNNY     57  28  33 N17G26    30.16R
CUSTER         PTSUNNY   46  21  37 N14G21    30.24R
ELLSWORTH AFB  SUNNY     53  31  43 N9        30.23R
PHILIP           N/A    N/A N/A N/A MISG      30.20S
PINE RIDGE     SUNNY     54  33  45 N12G22    30.24R
SPEARFISH      FAIR      52  32  46 NW13      30.25S
WINNER         FAIR      56  28  34 N23G30    30.15R
$$

SDZ004>011-016>023-039-040-261700-
NORTHEAST SOUTH DAKOTA

CITY           SKY/WX    TMP DP  RH WIND       PRES   REMARKS
ABERDEEN       SUNNY     55  30  38 N18G25    30.11R
WATERTOWN      SUNNY     53  28  38 N31G38    30.02R
BROOKINGS      SUNNY     51  30  44 N26G41    30.00R
SISSETON         N/A     53  31  42 N29G37    30.04R
$$

SDZ017-020-022-023-036>040-048>070-261700-
SOUTHEAST SOUTH DAKOTA

CITY           SKY/WX    TMP DP  RH WIND       PRES   REMARKS
SIOUX FALLS    MOSUNNY   56  37  49 N23G38    29.97R
HURON          SUNNY     55  31  39 N22G36    30.08R
CHAMBERLAIN    SUNNY     57  29  34 N21G26    30.13R
MITCHELL       SUNNY     56  33  42 N28G40    30.07R
YANKTON        CLOUDY    56  39  53 N25G35    29.98R
$$

ABBREVIATIONS USED IN REMARKS
   TC - TEMPERATURE IN CELSIUS
  WCI - WIND CHILL INDEX
   HX - HEAT INDEX
  VSB - VISIBILITY




USA.gov is the U.S. government's official web portal to all federal, state and local government web resources and services.